RH
64 67 69 68 70 73 76 78 80 80 82 82 84 84 85 84 83 90 72 83 77 97 55 47 46 62 88 98 96 90 81 61 54 63 59 57 52 50 45 39 40 43 52 58 47 63 81 23 32 31 35 27 27 29
69 68 68 70 72 75 79 80 82 82 85 89 89 86 86 85 83 86 92 76 75 88 56 60 53 55 63 85 98 92 74 55 81 71 68 49 56 55 46 61 39 49 41 54 43 60 38 31 28 26 26 27 27 30
67 67 69 72 75 78 81 82 84 88 91 92 91 90 86 85 84 86 85 79 88 94 69 55 55 43 54 71 82 99 80 64 53 60 61 54 51 44 53 48 40 36 35 42 41 28 33 32 27 28 24 25 21 22
66 70 72 76 78 81 81 84 88 91 93 94 94 92 87 85 84 85 93 76 78 83 82 55 38 54 43 70 74 75 80 80 70 52 47 47 43 49 44 39 34 34 36 34 35 30 29 28 28 23 23 23 22 22
70 72 75 79 81 81 82 86 91 93 93 92 92 91 87 86 84 88 91 79 65 58 75 60 47 41 44 62 77 71 78 80 66 55 47 42 41 42 40 36 34 32 34 40 42 28 28 21 22 24 24 24 21 24
72 76 80 81 81 82 84 90 93 93 92 90 89 88 86 84 85 95 100 91 65 62 79 70 50 48 50 58 80 88 73 77 64 49 44 41 51 44 40 36 26 29 27 25 25 26 27 27 28 23 24 21 20 24
78 80 80 81 83 83 86 92 93 93 93 90 88 87 85 85 92 98 96 85 72 75 96 73 54 46 61 62 67 90 90 87 64 56 52 41 46 45 41 39 28 26 24 23 25 26 26 22 18 24 25 19 26 20
81 81 81 83 85 85 89 94 92 91 92 90 88 86 87 84 93 96 78 75 64 81 79 78 75 74 66 80 82 63 81 85 58 52 50 48 47 46 51 34 28 24 23 25 25 27 22 20 18 22 24 22 22 21
81 82 84 86 86 85 91 93 91 83 91 91 90 89 94 97 99 97 82 73 68 64 78 71 71 84 68 68 67 67 64 85 79 66 49 46 49 58 43 40 32 28 29 28 25 27 26 27 22 21 25 24 24 22
82 85 87 88 87 87 90 93 93 81 92 90 95 99 100 98 87 82 94 98 94 88 69 69 48 90 87 78 83 78 74 91 96 82 48 56 55 40 39 39 31 31 29 28 35 38 37 32 29 25 28 26 23 22
84 87 90 90 88 88 88 92 92 87 92 97 100 100 94 83 79 95 100 100 99 98 78 56 46 71 89 95 98 80 93 86 93 64 62 55 56 51 41 41 35 31 31 29 27 25 27 28 30 31 30 31 28 26
87 89 89 87 86 87 87 90 91 91 94 94 94 92 95 98 100 100 100 91 92 71 58 54 44 49 88 96 79 83 94 84 76 54 67 67 48 36 41 41 36 36 33 31 27 26 27 27 28 30 31 33 34 32
92 92 92 90 88 87 87 91 87 86 86 90 89 100 100 100 100 100 95 90 83 62 54 47 50 48 84 95 96 74 84 92 52 75 77 56 43 37 40 36 35 35 36 34 30 29 29 30 31 35 33 32 38 42
90 91 91 89 88 87 86 89 83 87 84 99 100 100 98 99 82 61 47 44 43 45 49 41 58 67 78 99 99 89 63 63 77 80 58 55 46 45 45 40 35 39 40 38 36 33 35 41 42 52 61 57 68 62
88 90 90 90 90 88 87 89 90 86 77 95 88 82 89 58 51 47 35 41 44 43 45 52 57 62 81 100 98 74 78 83 62 47 59 53 44 42 41 42 41 41 50 46 39 39 53 57 52 67 59 51 43 92
90 92 93 89 92 91 91 92 94 90 83 66 61 50 51 63 80 69 49 48 46 44 45 46 63 76 82 80 92 88 64 74 55 54 56 51 46 39 35 46 52 48 41 43 43 43 46 62 59 41 48 47 88 81
95 96 88 90 92 90 91 93 93 98 93 87 88 51 56 49 72 59 41 42 46 53 72 60 80 78 55 74 86 60 62 56 51 53 57 52 47 38 41 48 59 53 46 45 45 44 43 46 38 41 47 50 52 56
95 95 88 89 91 93 92 96 99 99 97 77 77 74 58 53 69 57 42 40 46 52 50 53 50 68 81 59 53 51 56 57 57 58 52 50 44 41 45 48 52 47 46 48 45 45 46 45 41 41 36 44 45 48
94 94 90 89 88 91 99 96 82 86 79 68 73 75 66 70 56 48 40 43 41 39 39 47 56 54 50 43 47 47 50 50 54 50 54 50 47 49 51 49 49 47 48 48 46 43 41 38 39 40 43 43 48 50
91 91 90 87 82 83 99 94 79 86 82 81 65 74 72 65 60 60 55 51 48 54 57 55 57 49 49 45 42 44 49 49 53 60 59 56 51 50 51 53 45 47 48 46 45 55 45 46 41 45 46 47 55 58
85 90 89 89 88 82 90 86 94 93 96 94 77 68 69 66 70 77 72 58 67 71 65 54 55 53 56 52 55 61 60 53 51 48 48 58 54 51 50 49 52 53 58 57 58 58 62 56 54 54 68 68 67 64
95 87 96 86 97 94 96 95 95 94 93 99 98 78 78 92 98 89 83 89 86 80 69 60 56 54 61 65 63 59 57 55 63 67 70 68 62 61 60 59 60 66 65 68 62 69 67 63 64 66 81 96 69 66
81 82 92 100 100 100 100 97 97 98 99 100 99 100 100 99 98 91 99 95 94 92 73 60 65 72 76 69 66 61 59 56 54 54 57 56 59 64 67 66 67 78 76 71 67 71 74 81 83 94 84 79 88 94
80 97 100 100 98 100 100 100 98 99 99 99 100 100 100 99 98 99 99 98 94 90 86 91 86 81 74 72 70 65 68 56 58 58 59 66 71 70 68 71 73 73 70 74 72 75 75 98 82 74 100 100 100 100
98 99 100 99 93 98 100 100 99 96 100 100 100 100 100 99 100 100 100 98 93 96 93 92 96 89 77 78 78 75 72 68 69 76 68 60 73 77 77 75 74 76 75 92 98 100 100 100 100 100 100 100 96 100
96 100 97 96 97 92 92 97 97 98 98 100 100 99 99 100 100 99 99 99 97 94 98 95 92 90 87 78 70 74 73 72 65 72 74 68 69 74 78 79 76 77 73 84 100 100 99 100 100 100 100 99 98 100
94 98 88 84 82 89 93 86 93 98 100 100 97 100 100 99 97 96 99 98 95 92 89 90 80 85 86 81 77 77 75 75 69 69 73 75 78 70 72 76 69 71 75 80 96 100 100 100 100 100 100 100 100 100
88 86 92 94 93 92 96 91 96 98 97 96 97 97 96 97 96 96 99 99 97 92 90 88 84 83 86 84 84 86 87 86 83 82 81 81 76 78 81 81 86 91 87 98 100 100 100 100 100 100 100 100 100 100
92 88 87 96 96 96 96 96 94 94 96 95 96 96 96 91 95 96 97 98 94 92 90 89 93 91 91 90 93 90 86 82 82 98 100 100 99 95 96 93 90 92 95 90 100 99 100 100 100 100 100 100 100 100
93 89 90 94 95 94 95 94 96 96 93 95 91 91 89 93 95 94 94 94 95 99 100 100 100 100 100 100 100 100 100 100 100 100 100 100 100 99 100 100 100 100 100 100 99 98 99 100 100 100 100 100 100 100
88 93 95 94 93 95 96 99 95 92 90 91 85 90 92 91 85 91 92 94 94 98 98 100 99 99 100 100 100 100 100 100 100 100 99 100 100 100 100 100 100 100 100 100 100 100 100 100 100 100 100 100 100 100
92 94 96 92 95 99 98 100 99 97 95 89 93 88 84 85 93 89 93 94 94 94 98 97 98 99 98 98 99 98 98 99 99 100 100 100 100 100 100 100 100 100 100 100 100 100 100 100 100 100 100 100 100 100
94 94 93 95 98 98 96 97 90 96 95 93 94 90 91 88 93 93 72 84 95 96 96 98 98 98 99 99 98 99 97 99 99 98 98 97 95 94 99 100 100 100 100 100 100 100 100 100 100 100 100 100 100 100
Wind_Speed
23 23 23 23 24 25 26 27 28 28 27 26 26 26 27 27 25 17 11 9 11 3 12 11 8 6 4 4 2 6 3 5 3 4 1 3 3 5 5 9 9 9 9 6 6 5 8 10 10 6 5 3 4 4
24 23 23 25 25 26 27 28 28 26 28 29 27 27 28 28 27 23 8 9 8 8 6 5 7 7 5 6 4 6 4 9 3 2 1 3 4 5 7 5 4 7 6 5 9 5 2 15 1 8 3 3 3 5
24 24 25 26 26 28 28 27 26 29 28 27 26 27 29 29 28 24 11 8 7 3 10 15 15 8 9 11 8 4 4 6 3 4 2 1 4 4 5 4 6 6 6 4 3 4 13 9 13 8 9 2 2 3
25 25 26 27 28 28 26 26 27 25 23 21 22 27 28 29 28 26 12 8 7 3 6 8 4 6 12 14 14 12 12 10 8 4 2 2 2 4 4 2 4 1 12 7 6 11 7 11 15 14 13 8 4 5
26 27 27 28 27 26 26 27 22 21 17 17 20 24 27 28 27 17 9 7 11 8 3 5 9 15 13 15 16 11 11 11 6 6 6 5 3 4 2 3 5 9 8 7 5 6 4 1 2 12 16 16 12 10
27 28 28 27 26 25 26 22 20 18 16 17 19 25 27 27 26 9 4 7 10 10 5 4 5 6 3 17 12 8 8 7 7 4 9 3 1 3 6 7 5 14 9 10 2 1 6 1 1 3 13 17 14 13
28 28 27 26 26 24 21 21 18 16 17 18 20 22 25 27 15 4 2 9 12 7 1 4 5 2 4 13 10 4 3 5 6 5 5 5 4 4 3 9 7 10 13 11 9 5 5 10 5 5 7 14 15 13
28 28 27 26 25 22 20 17 18 18 19 20 20 23 24 27 12 4 1 20 17 6 5 4 5 5 8 5 6 5 8 4 5 5 2 7 3 4 8 11 16 12 10 12 13 14 11 1 7 5 6 12 15 15
29 28 27 25 23 19 18 18 19 21 21 22 22 23 12 7 3 3 16 20 5 3 5 4 4 3 4 2 4 2 3 4 1 5 9 5 9 11 7 12 14 14 12 12 11 13 12 13 11 9 10 13 17 16
28 27 25 23 22 20 17 17 19 24 22 24 14 3 3 7 21 21 3 3 4 3 4 5 6 4 5 3 2 6 1 3 2 4 2 9 13 15 18 10 12 14 17 11 9 7 10 12 14 14 14 14 17 17
27 26 24 24 23 22 21 21 22 24 23 7 4 2 6 29 6 2 5 5 5 5 6 8 13 5 2 4 4 2 3 3 4 6 7 7 9 18 19 17 18 13 12 16 16 12 11 10 11 13 13 14 14 16
27 25 25 26 26 26 23 25 26 17 5 6 9 6 6 3 3 6 8 7 9 11 9 14 13 10 2 1 3 5 4 4 8 9 6 8 9 14 15 23 26 22 21 19 18 17 13 12 11 12 14 14 14 14
27 24 26 29 29 30 28 29 28 19 24 5 5 4 4 5 9 11 16 7 8 4 8 11 14 9 4 2 2 5 8 8 3 6 7 6 6 11 16 18 23 24 24 25 26 21 17 16 12 13 14 14 14 13
26 23 26 30 33 34 33 34 34 24 8 4 6 10 9 8 10 6 13 13 9 7 12 13 12 6 4 4 2 5 4 3 6 7 11 4 10 13 12 14 15 20 22 23 22 19 19 17 15 13 9 10 10 12
25 26 28 31 33 35 37 38 36 17 7 7 6 9 15 5 1 8 10 14 13 12 13 12 7 4 5 2 4 4 7 9 10 7 5 6 12 11 14 15 15 14 11 14 14 15 14 13 13 11 10 11 13 8
24 24 22 31 35 37 39 35 24 13 3 8 9 11 10 9 6 10 12 13 12 13 13 9 6 7 6 6 7 11 6 6 4 6 7 9 12 14 15 10 11 11 13 12 12 12 12 13 13 14 12 11 7 11
23 10 24 31 37 41 38 14 10 6 9 7 6 9 12 10 10 10 13 13 13 14 11 6 9 11 7 7 8 8 8 5 4 3 2 4 6 7 7 8 9 11 12 11 11 11 11 12 13 13 13 11 11 11
7 12 35 38 29 32 14 3 5 5 6 7 11 9 10 8 12 12 12 15 13 15 14 9 3 9 8 8 13 8 5 8 7 5 3 4 5 6 6 9 10 11 11 11 10 11 12 14 13 10 12 13 11 11
7 20 40 42 23 9 5 5 3 6 3 6 6 7 6 6 8 12 13 16 13 12 10 7 8 11 13 7 7 6 9 8 6 4 2 3 3 6 9 9 10 10 10 11 12 9 9 11 8 9 9 10 9 9
26 28 28 23 10 6 5 4 3 3 5 6 7 7 5 4 7 9 10 13 13 13 11 13 13 8 5 9 8 7 8 9 7 4 3 4 5 10 10 9 7 10 9 10 8 8 9 7 7 8 9 9 10 10
16 8 11 5 4 5 5 3 4 3 5 4 4 7 5 5 7 9 11 11 9 11 12 9 10 10 7 5 5 6 4 6 9 6 5 7 9 9 8 8 9 8 8 8 8 8 7 7 8 7 7 7 6 8
4 9 4 5 5 5 5 4 4 3 3 4 2 4 4 4 3 7 6 6 6 9 9 10 8 8 8 8 7 8 7 7 7 5 7 10 9 8 8 8 8 7 7 7 8 8 7 7 7 7 7 6 7 8
8 5 5 3 5 5 4 2 3 3 4 2 2 3 2 3 5 7 4 4 3 4 6 6 4 3 9 5 8 8 8 11 8 8 10 8 8 7 7 6 6 7 7 6 6 7 7 8 7 7 8 7 7 7
9 7 5 5 5 6 2 3 2 4 3 4 3 5 7 5 4 3 4 4 3 3 6 6 4 5 5 5 6 6 5 6 8 9 8 10 9 7 7 6 6 5 6 8 7 8 8 7 8 8 6 7 7 7
7 4 3 3 3 3 3 5 4 3 4 6 9 4 5 4 4 3 4 4 3 3 4 6 6 1 2 1 1 1 2 5 7 10 6 8 10 8 7 6 6 6 6 8 6 8 8 7 6 7 8 8 9 8
4 3 3 2 2 2 1 2 3 4 5 4 3 4 3 3 3 3 1 2 3 4 7 8 7 4 2 2 3 3 3 1 6 7 6 7 7 9 9 9 7 4 4 5 9 10 10 8 7 8 7 7 7 8
5 3 2 2 2 2 1 3 0 3 3 4 4 5 4 4 3 1 1 2 1 1 2 2 6 4 1 0 3 5 5 4 4 7 8 5 5 5 4 6 7 6 7 7 7 9 11 10 9 7 7 5 5 6
4 2 2 3 3 2 3 3 2 2 2 2 2 4 4 4 4 4 3 4 5 4 6 6 6 6 5 4 5 5 6 6 10 10 9 9 8 7 8 6 6 8 6 6 6 6 7 9 9 8 8 7 6 5
4 3 2 3 3 3 3 3 3 3 3 2 2 4 5 4 6 4 4 5 5 5 7 7 7 6 7 7 8 7 5 3 8 9 10 6 3 4 4 5 5 5 5 6 6 4 6 5 6 6 6 5 5 5
3 3 2 4 4 4 3 4 4 4 2 5 6 9 7 4 8 9 10 11 10 9 7 6 6 6 6 5 6 9 8 7 6 5 7 5 4 3 3 4 5 5 5 6 7 8 7 6 6 4 5 4 4 4
2 1 4 3 3 3 3 3 8 12 13 12 11 12 9 5 7 15 15 12 9 9 10 10 11 10 8 8 6 6 8 8 11 12 10 7 6 5 4 4 3 3 4 6 6 5 6 4 4 6 6 6 6 5
4 4 1 4 4 3 4 3 4 5 5 8 7 5 5 6 8 8 12 12 11 12 14 10 10 10 9 7 7 8 10 6 7 8 9 6 6 5 4 4 3 4 5 5 5 4 3 4 4 4 3 5 5 5
3 4 5 3 3 4 4 2 5 5 6 5 7 6 6 5 8 6 7 10 9 8 8 7 7 8 8 9 9 8 9 8 10 10 10 9 8 7 5 4 4 4 5 4 3 2 2 1 1 2 3 4 5 6
Wind_Direction
269 271 272 274 273 272 271 271 269 267 261 253 245 231 223 219 214 205 218 193 207 210 257 253 273 294 330 290 162 150 109 239 234 226 157 109 129 170 146 153 166 159 165 183 194 214 267 153 139 221 35 57 15 171
264 271 273 271 272 271 272 271 268 265 262 255 240 226 215 212 206 197 219 183 209 230 272 325 305 307 193 172 309 296 212 175 196 164 161 136 150 174 157 164 183 193 197 185 208 213 115 190 166 187 55 25 87 138
267 271 270 271 271 272 273 272 269 266 258 247 229 216 207 203 200 195 200 172 183 213 263 256 256 263 182 163 164 283 236 327 252 354 138 165 180 163 164 192 146 215 183 235 210 200 226 213 229 233 219 266 107 134
269 269 268 269 272 273 274 273 269 263 251 230 221 202 198 195 193 191 194 181 177 179 252 265 221 231 216 180 178 222 278 307 322 254 231 260 243 235 178 125 213 129 160 200 257 272 235 243 231 224 214 211 186 161
265 265 267 270 270 272 272 269 259 253 236 223 193 186 188 187 185 184 189 191 184 204 272 276 283 247 203 180 191 211 233 246 246 221 219 226 114 181 123 174 190 191 166 185 213 211 281 321 147 211 213 199 198 172
263 265 267 267 269 268 266 259 250 243 225 187 182 180 179 179 171 161 156 208 193 211 300 289 348 276 233 189 191 194 220 238 249 239 229 198 115 235 199 210 193 192 203 224 276 180 234 331 316 194 199 193 183 183
263 264 265 266 265 261 255 253 225 223 187 175 175 177 174 174 169 158 183 153 159 149 170 264 259 232 220 176 176 184 181 244 251 223 229 214 180 219 239 234 182 203 221 226 229 193 235 229 242 184 195 195 186 182
261 262 263 260 257 253 253 214 211 195 179 171 169 169 170 165 122 150 190 156 142 131 205 229 259 269 193 171 164 157 170 209 227 233 229 235 147 214 242 232 248 243 234 238 227 216 248 324 219 205 174 176 182 181
261 259 256 250 245 236 230 203 200 185 173 166 165 161 149 170 133 162 145 155 154 188 188 204 225 253 199 169 111 135 187 179 187 254 226 225 211 220 212 211 219 216 214 230 230 220 226 233 235 209 186 184 191 186
259 253 245 236 226 216 203 196 192 176 166 162 154 157 127 151 129 110 80 132 167 240 228 236 198 231 259 133 138 152 142 169 207 226 185 235 244 238 230 227 234 230 222 214 188 200 214 226 221 218 201 193 198 192
255 245 237 215 205 199 192 190 191 172 159 176 137 120 135 151 103 106 148 174 158 195 211 216 215 175 269 172 164 171 156 176 227 185 219 222 233 222 223 232 234 234 236 219 221 215 193 202 205 210 204 201 204 197
249 242 219 204 196 191 190 189 183 167 147 129 111 137 131 111 137 171 178 174 190 198 179 197 196 188 180 272 129 195 146 194 239 148 204 244 229 222 208 222 224 221 227 226 221 227 219 207 196 198 202 197 196 196
241 223 204 196 191 187 187 182 176 142 119 144 117 159 176 174 190 197 177 178 185 205 144 166 172 165 153 194 249 181 182 210 132 204 227 240 216 214 205 213 222 220 222 230 234 230 231 223 196 189 193 197 187 185
224 209 200 193 189 188 187 179 173 148 145 162 167 164 203 190 221 199 188 171 165 172 163 162 154 162 141 178 179 193 200 161 236 213 228 199 219 224 220 225 222 217 213 221 230 227 216 214 200 187 189 175 171 169
213 206 200 196 190 189 182 176 173 168 163 180 198 203 206 184 171 143 168 150 161 163 160 150 153 138 113 226 218 202 177 230 214 231 202 206 223 223 224 219 217 216 201 212 213 208 204 200 189 177 176 176 187 141
216 215 207 197 189 186 181 176 171 181 205 193 209 203 184 174 159 174 166 157 158 157 153 178 151 175 169 209 197 208 221 221 221 202 216 209 216 221 223 206 207 198 202 200 196 198 192 187 194 184 168 175 155 160
217 213 183 190 181 172 165 157 152 191 175 207 202 207 173 181 160 171 171 160 159 168 173 183 196 190 135 200 206 209 214 229 252 262 255 259 279 249 230 206 187 182 181 180 173 177 180 175 173 157 163 165 173 167
219 188 176 166 162 158 153 107 126 148 160 205 180 159 184 165 153 163 175 172 175 179 187 198 168 206 208 215 206 187 205 249 263 262 278 273 239 224 196 190 169 168 159 156 156 154 154 152 158 169 165 153 146 151
115 141 144 146 135 111 99 130 215 146 179 161 120 141 159 131 167 169 172 184 192 185 187 202 240 226 228 247 243 195 199 228 250 260 227 244 206 205 169 160 146 146 140 142 151 155 152 155 150 151 150 156 155 157
100 106 105 105 118 89 93 104 198 136 142 143 144 149 142 159 157 177 189 182 190 175 205 211 222 245 270 239 234 233 210 210 199 207 186 188 175 177 176 150 140 132 129 140 137 127 131 129 138 146 152 157 153 157
86 76 61 81 53 64 89 104 88 79 120 112 134 157 158 152 180 181 187 179 193 205 206 211 222 250 264 274 287 293 236 198 218 239 169 165 181 166 160 134 132 134 141 151 156 143 148 146 143 134 137 141 132 140
93 89 72 40 55 68 84 21 97 100 80 97 110 167 192 169 179 184 163 181 208 200 217 209 214 238 264 267 258 238 245 186 163 127 98 131 163 162 154 141 140 139 146 155 152 148 134 127 128 133 124 121 130 132
96 62 61 47 87 58 70 314 83 83 89 150 112 119 161 153 185 156 189 193 195 201 192 199 209 306 268 275 261 240 203 185 165 154 159 148 132 132 128 128 134 136 134 129 135 131 121 115 110 121 128 133 121 117
33 48 26 38 30 83 123 120 113 131 153 151 241 180 163 143 153 204 171 203 166 139 169 152 121 217 221 214 235 197 190 183 154 152 142 130 126 124 119 117 117 112 114 127 130 126 127 120 131 136 125 127 129 141
75 33 349 61 61 114 146 138 144 162 202 170 209 169 150 162 152 171 182 157 130 143 152 145 203 230 114 139 87 188 181 179 163 129 123 126 119 113 109 107 99 107 130 125 125 125 122 120 125 141 149 146 153 160
86 16 30 112 97 77 86 288 166 218 206 164 103 109 146 142 124 126 116 107 125 175 180 174 142 182 147 213 168 185 138 68 134 108 123 142 146 143 138 137 138 136 170 138 133 137 136 144 154 152 155 167 152 147
121 116 99 52 73 63 315 286 349 266 240 143 154 163 157 104 96 35 346 26 357 328 284 144 92 87 89 285 95 74 63 43 70 97 109 95 78 75 111 134 141 130 147 145 143 150 151 156 159 163 162 159 171 170
67 69 78 68 68 79 288 281 258 284 2 39 77 47 77 53 64 346 345 333 338 16 52 57 60 84 96 79 71 77 76 92 94 94 91 68 57 55 62 68 72 96 110 120 135 131 146 156 162 163 170 175 173 173
52 39 77 64 67 50 21 331 333 354 352 335 91 80 83 50 340 337 323 356 32 61 69 78 73 90 81 74 58 51 48 73 130 116 103 104 87 46 37 74 94 98 110 116 79 94 131 140 148 155 159 151 132 148
68 358 85 56 38 4 24 345 348 328 355 54 88 106 86 75 30 17 32 36 38 44 46 60 60 64 78 81 73 60 38 31 22 102 120 120 114 99 59 58 70 73 86 101 109 104 93 96 103 98 117 125 149 156
6 29 86 61 69 20 347 31 77 79 82 94 98 97 108 130 65 34 24 16 26 38 48 54 53 36 48 44 38 66 63 22 33 46 61 74 78 78 76 70 83 100 102 107 116 124 128 124 130 139 157 169 176 182
34 8 146 121 105 47 26 53 61 68 57 72 66 64 67 56 63 37 8 1 16 30 30 45 55 46 41 45 48 56 57 51 36 38 45 57 68 68 74 77 66 77 96 116 133 133 134 152 171 199 216 217 200 201
48 40 36 94 102 73 5 63 78 68 40 47 51 52 48 52 71 28 12 17 16 8 3 14 46 47 44 51 56 57 54 57 52 48 50 53 55 59 59 57 71 79 94 93 88 97 132 172 218 207 211 224 227 229